Simultaneous Nadir Overpasses (SNOs) Predictions

Prediction of SNOs between GOES-16 and METOP-B Satellite Orbit:

Table of predicted SNOs for the next 14.0 days since TLE Epoch: 4/27/2017
Index Date Time (GOES-16) GOES-16 Lat,Lon METOP-B Lat,Lon Distance(km) Time Diff (sec)
1 04/29/2017 15:28:37 -0.00, -89.50 0.01, -89.65 17.10 80
2 05/02/2017 03:26:57 -0.00, -89.48 0.05, -89.25 26.71 80
3 05/03/2017 15:45:48 0.01, -89.50 0.95, -93.81 491.05 80
4 05/04/2017 15:27:49 0.01, -89.51 -0.17, -88.82 78.75 80
5 05/06/2017 03:46:48 -0.01, -89.51 -0.88, -93.41 445.38 80
6 05/07/2017 03:23:28 -0.01, -89.51 0.25, -88.42 124.49 80
7 05/08/2017 15:42:20 0.01, -89.54 0.76, -92.99 392.50 80
8 05/09/2017 15:24:19 0.01, -89.55 -0.31, -87.98 177.90 80
9 05/11/2017 03:43:20 -0.01, -89.55 -0.68, -92.59 345.14 80




NCC Satellite Simultaneous Nadir Overpasses (SNOs) Prediction Service
